TimeCST,TemperatureF,Dew PointF,Humidity,Sea Level PressureIn,VisibilityMPH,Wind Direction,Wind SpeedMPH,Gust SpeedMPH,PrecipitationIn,Events,Conditions,WindDirDegrees,DateUTC
12:53 AM,24.1,18.0,77,30.35,10.0,NNW,8.1,-,N/A,,Overcast,340,2013-03-02 06:53:00
1:17 AM,24.8,17.6,74,30.31,10.0,NNW,5.8,-,N/A,,Overcast,340,2013-03-02 07:17:00
1:53 AM,24.1,18.0,77,30.34,10.0,NNW,5.8,-,N/A,,Overcast,340,2013-03-02 07:53:00
2:53 AM,24.1,16.0,71,30.33,10.0,North,8.1,-,N/A,,Overcast,360,2013-03-02 08:53:00
3:53 AM,24.1,15.1,69,30.33,10.0,North,12.7,-,N/A,,Overcast,350,2013-03-02 09:53:00
4:53 AM,23.0,14.0,68,30.35,10.0,North,9.2,-,N/A,,Overcast,10,2013-03-02 10:53:00
5:53 AM,21.9,12.9,68,30.36,10.0,NNW,9.2,-,N/A,,Overcast,340,2013-03-02 11:53:00
6:53 AM,21.9,12.9,68,30.38,10.0,NNW,10.4,-,N/A,,Overcast,340,2013-03-02 12:53:00
7:53 AM,21.9,12.9,68,30.38,10.0,North,8.1,-,N/A,,Overcast,350,2013-03-02 13:53:00
8:53 AM,21.9,12.9,68,30.38,10.0,North,9.2,-,N/A,,Overcast,360,2013-03-02 14:53:00
9:53 AM,24.1,14.0,65,30.38,10.0,North,6.9,-,0.00,,Mostly Cloudy,350,2013-03-02 15:53:00
10:53 AM,25.0,14.0,63,30.38,10.0,WNW,4.6,-,N/A,,Mostly Cloudy,300,2013-03-02 16:53:00
11:53 AM,28.0,16.0,61,30.37,10.0,NNW,5.8,-,N/A,,Mostly Cloudy,330,2013-03-02 17:53:00
12:53 PM,28.0,16.0,61,30.34,10.0,North,4.6,-,N/A,,Scattered Clouds,360,2013-03-02 18:53:00
1:53 PM,30.9,16.0,54,30.31,10.0,NNE,3.5,-,N/A,,Partly Cloudy,20,2013-03-02 19:53:00
2:53 PM,30.9,15.1,52,30.30,10.0,Calm,Calm,-,N/A,,Scattered Clouds,0,2013-03-02 20:53:00
3:53 PM,28.9,17.1,61,30.28,10.0,SW,6.9,-,N/A,,Partly Cloudy,220,2013-03-02 21:53:00
4:53 PM,28.9,17.1,61,30.28,10.0,SW,5.8,-,N/A,,Partly Cloudy,220,2013-03-02 22:53:00
5:53 PM,27.0,15.1,61,30.28,10.0,Calm,Calm,-,N/A,,Scattered Clouds,0,2013-03-02 23:53:00
6:53 PM,26.6,15.8,64,30.23,10.0,South,4.6,-,N/A,,Mostly Cloudy,190,2013-03-03 00:53:00
7:53 PM,26.1,16.0,66,30.26,10.0,South,4.6,-,N/A,,Mostly Cloudy,190,2013-03-03 01:53:00
8:53 PM,25.0,18.0,75,30.24,10.0,South,5.8,-,N/A,,Overcast,170,2013-03-03 02:53:00
9:53 PM,27.0,19.0,72,30.24,10.0,SSW,6.9,-,N/A,,Overcast,200,2013-03-03 03:53:00
10:53 PM,27.0,19.0,72,30.22,10.0,South,6.9,-,N/A,,Overcast,180,2013-03-03 04:53:00
11:53 PM,27.0,19.0,72,30.20,10.0,South,6.9,-,N/A,,Overcast,170,2013-03-03 05:53:00